STARLINK-2092 (47373 NORAD) Tracking and Keplerian Element Data

This shows tracking and keplerian element data for the satellite.

Feedback or suggestion? Click here.




ElementValue
Catalog47373
NameSTARLINK-2092
Epoch Orbit1348
Epoch Day106.25002315
Epoch Year2021
RAAN170.2357
Inclination53.0559
Eccentricity0.0001018
Argument of Perigee84.8129
Mean Anonmoly301.0261
Mean Motion15.06402265
Decay Rate-0.00014113
L11 47373U 21005AA 21106.25002315 -.00014113 00000-0 -93042-3 0 9993
L22 47373 53.0559 170.2357 0001018 84.8129 301.0261 15.06402265 13480

Live tracking and technical data element details for STARLINK-2092 (NORAD 47373). STARLINK-2092 can be tracked NOW for your location showing map with azimuth and elevation plus other details from your city location.

Track the satellite on the map from your city or location and see movement details for azimuth, elevation, latitude, longitude, range, height, and movement on the map or in text.







IsCatalogInMostPopularTable: catalog: 47373, numindb: 15
Update: records affected: 1



GetName: 47373 STARLINK-2092

Hit Count: updated at: Fri, 16 Apr 2021 11:51:09 GMT